Location: Casa Rossa
(45.2389°N, 12.2056°E)
Time: 23:43:09
(UTC+00:00)

SeaSat 1 - Pass Details

Date: 14 July 2020
Orbit: 744 x 748 km, 108.0° (Epoch: 14 August)

Event Time Altitude Azimuth Distance (km) Brightness Sun altitude
Rises 00:36:16 0° 34° (NNE) 3,200 7.1 -20.7°
Reaches altitude 10° 00:38:41 10° 41° (NE) 2,272 5.9 -20.6°
Maximum altitude 00:43:20 41° 111° (ESE) 1,085 3.2 -20.3°
Enters shadow 00:45:02 30° 155° (SSE) 1,306 3.3 -20.2°
